Dewpoint
67 70 72 72 71 70 70 69 69 68 68 67 66 65 65 65 66 66 66 66 66 66 64 64 64 64 64 64 64 64 65 65 65 65 67 67 68 66 66 66 66 64 65
67 71 72 71 70 70 70 70 69 68 68 67 65 65 64 64 65 65 66 65 65 63 63 62 63 63 62 63 62 63 65 65 65 66 67 67 67 66 66 67 66 65 65
68 71 71 71 70 70 71 70 70 68 67 66 68 66 66 65 65 66 66 65 64 63 63 60 59 62 61 63 60 63 64 65 65 65 65 66 67 66 66 67 67 66 65
69 71 71 71 70 71 70 70 70 69 67 67 68 68 68 68 68 67 66 65 65 63 62 60 59 59 61 61 64 64 64 65 65 64 64 66 66 66 64 65 66 66 65
69 70 71 70 71 71 70 70 69 70 68 69 68 68 68 69 68 66 66 66 65 64 63 62 63 61 62 64 66 66 66 66 65 64 64 66 65 63 64 64 64 65 65
69 70 71 70 70 71 70 70 69 70 70 69 69 69 68 68 68 66 66 66 65 65 65 63 64 64 65 66 66 66 66 65 64 64 65 66 65 63 62 62 62 62 63
68 70 71 70 70 71 70 70 69 71 70 69 69 68 68 67 67 66 66 66 66 65 64 63 64 65 65 65 65 65 64 63 63 64 66 66 65 64 63 62 60 60 62
67 69 70 70 70 70 70 69 69 71 70 69 69 68 68 68 67 67 66 65 65 65 64 62 64 65 65 64 64 63 62 62 63 64 66 66 64 63 64 62 61 60 60
68 68 69 69 70 69 69 69 69 70 70 69 68 68 68 68 67 66 65 65 65 64 64 63 63 64 63 62 63 63 63 63 63 64 65 65 64 63 62 61 58 58 60
67 67 69 69 69 69 69 69 68 70 69 69 68 68 68 67 66 66 65 65 65 65 64 64 62 62 62 61 61 61 61 62 62 64 64 65 64 63 62 61 58 58 59
65 67 68 69 68 68 68 69 69 69 69 68 67 67 67 67 66 65 64 65 65 64 64 63 62 62 61 60 59 58 59 59 61 63 64 66 64 63 61 60 59 56 55
64 67 68 68 67 67 67 68 68 68 68 67 66 66 67 66 66 64 64 65 65 64 63 62 61 58 55 55 56 55 56 58 59 62 64 65 64 63 62 61 59 58 57
64 66 67 67 67 66 66 67 67 67 66 66 66 65 65 65 65 64 64 64 63 62 61 59 55 54 54 54 54 55 56 57 57 58 61 63 63 62 62 62 61 59 58
64 66 67 66 66 65 64 65 66 65 65 65 65 64 64 64 64 63 61 61 61 59 57 54 54 55 55 54 55 56 57 56 56 56 57 59 62 63 62 61 61 60 58
64 65 66 66 65 64 64 63 64 64 64 64 64 64 64 62 62 61 60 60 57 56 54 54 54 55 54 55 57 57 56 56 56 56 55 53 56 59 61 61 61 61 60
63 65 66 65 64 63 62 63 63 63 63 62 63 63 62 62 61 59 59 58 56 53 54 54 55 54 54 56 56 56 56 55 55 55 54 52 52 55 54 55 58 60 58
64 65 65 65 64 62 62 62 62 62 62 62 62 60 61 59 60 58 57 56 53 52 54 55 54 53 53 55 54 54 54 54 53 54 56 57 56 56 53 54 55 54 54
64 65 65 65 63 62 62 61 61 61 62 62 61 59 57 57 58 57 56 55 52 53 54 54 53 52 52 54 53 54 54 53 51 52 56 54 53 54 56 56 54 54 53
63 64 64 64 63 62 60 60 60 60 60 61 60 58 56 55 56 56 55 53 52 53 53 53 52 51 52 53 52 53 53 51 51 50 55 53 52 53 53 54 56 55 54
62 64 64 64 63 62 59 59 59 59 59 60 59 57 55 54 55 55 54 52 52 52 52 52 51 51 52 52 51 52 52 52 51 50 51 53 52 51 51 51 54 55 55
42 58 63 63 62 61 58 57 57 57 58 58 59 57 55 53 54 54 53 52 52 52 52 51 51 50 50 51 50 50 51 52 52 51 51 51 51 52 51 51 52 52 54
35 38 43 60 62 61 59 57 57 57 57 57 58 56 55 53 54 53 53 52 52 51 51 51 50 50 50 51 50 49 48 50 50 51 51 51 51 52 52 51 52 52 51
29 32 36 43 50 61 61 58 57 57 57 56 57 56 55 53 54 53 53 52 52 51 51 51 50 50 50 51 51 49 47 46 49 51 51 51 51 51 51 52 52 52 52
27 30 32 38 45 49 61 58 56 56 55 55 56 56 55 54 54 54 53 53 52 51 51 51 51 50 50 49 50 53 52 50 48 48 51 51 51 50 50 51 51 52 52
27 28 30 33 39 41 44 59 57 55 55 56 56 56 55 55 54 54 54 53 52 52 51 51 51 50 50 50 49 52 51 51 50 49 48 50 51 51 51 51 51 51 52
25 26 28 29 34 38 38 45 58 56 55 55 55 55 55 55 54 54 54 54 53 52 52 51 51 51 50 51 52 52 51 50 49 48 48 49 49 50 51 52 51 52 52
Wind_Speed
18 22 27 28 27 25 24 24 25 24 25 25 26 25 24 23 23 22 22 23 24 25 25 22 22 23 23 23 23 23 22 23 23 20 19 20 22 26 23 23 20 21 24
23 23 28 28 30 27 25 25 26 25 25 26 26 26 24 23 23 23 24 25 25 26 24 22 21 21 22 21 21 21 21 22 21 18 18 18 21 25 24 21 21 22 24
27 25 26 28 28 28 27 26 27 26 26 27 26 26 25 24 22 24 27 26 26 25 22 23 21 21 21 20 20 19 19 19 17 16 16 13 20 25 25 24 24 26 26
28 25 24 28 28 27 28 27 27 27 26 27 25 25 23 24 24 27 28 26 25 24 23 24 22 21 20 18 17 19 19 17 16 15 15 12 18 26 24 25 26 26 25
26 26 26 30 29 28 29 27 26 26 27 26 25 23 22 24 27 27 26 25 25 26 26 24 22 22 20 17 18 20 19 17 15 14 15 13 17 22 23 23 23 24 25
26 25 29 31 29 27 28 27 26 22 27 27 24 24 22 24 26 27 25 25 26 25 26 22 21 21 20 20 20 22 20 18 16 13 12 16 18 22 22 22 22 22 23
26 23 27 30 28 27 26 27 25 21 27 27 25 25 23 25 27 27 25 24 24 24 24 21 20 21 22 20 20 20 21 19 16 14 13 13 20 24 22 22 22 21 22
28 26 27 29 29 27 26 26 25 21 24 27 27 25 24 26 27 25 24 23 24 24 23 20 19 22 22 22 19 19 20 18 16 15 13 15 22 24 23 22 22 21 20
25 27 24 24 25 26 24 24 24 22 25 26 26 25 24 26 27 25 23 23 24 24 22 19 17 21 22 22 20 22 20 19 16 14 12 14 23 24 23 21 21 20 20
25 24 24 23 23 21 20 22 22 21 25 24 24 24 23 25 26 24 22 22 23 23 21 20 17 19 20 21 22 20 18 18 16 15 13 15 21 23 24 23 21 20 22
24 22 24 24 23 20 18 18 20 21 23 24 24 27 24 18 19 21 19 22 23 22 21 21 19 18 17 19 19 18 17 13 14 13 12 20 20 24 23 22 21 21 20
28 25 25 25 25 23 18 18 18 17 18 19 19 19 17 17 17 16 20 23 23 22 22 21 19 17 16 14 13 15 13 12 13 13 12 20 20 22 21 21 21 22 21
28 24 24 25 25 24 22 18 16 15 14 15 17 18 18 16 15 15 15 16 17 18 15 15 14 14 15 14 14 13 11 9 11 12 16 16 18 20 20 19 20 21 20
28 27 25 27 26 24 23 20 17 17 17 16 15 17 18 16 15 14 14 14 15 12 16 15 15 14 14 13 14 13 11 13 12 12 13 17 16 18 19 18 17 18 17
26 24 25 27 26 24 24 21 17 17 17 17 15 15 18 18 17 16 15 13 14 14 16 15 15 14 14 13 12 14 14 14 13 11 9 14 15 15 15 16 15 17 18
27 23 23 27 26 26 22 22 19 16 18 18 16 15 14 17 16 18 16 13 15 16 14 16 15 15 13 13 13 12 13 14 13 13 12 10 8 10 11 8 13 14 16
23 26 26 29 29 27 24 21 19 18 18 19 16 15 16 16 17 18 16 14 15 14 16 15 13 14 14 11 13 13 14 13 12 11 10 10 12 14 12 10 9 10 9
22 23 23 22 29 27 24 20 17 17 18 17 16 16 16 17 17 16 15 16 15 16 16 16 15 14 14 14 13 11 13 12 10 9 9 10 11 11 11 13 11 10 11
24 26 22 20 29 25 24 20 18 19 17 16 16 16 17 17 19 18 14 15 16 16 16 17 13 16 16 13 13 11 10 10 9 8 9 9 9 9 8 11 12 12 11
13 18 27 23 28 25 23 19 16 17 15 15 17 17 19 17 18 18 16 17 16 16 15 15 18 10 13 15 11 10 7 6 6 7 7 6 6 7 6 7 7 8 10
26 3 24 25 23 25 23 22 19 20 18 16 17 19 21 19 19 19 17 18 17 19 20 19 16 20 11 10 12 9 6 3 3 3 3 4 5 4 4 5 5 5 6
24 23 24 13 26 26 24 23 20 22 19 21 19 16 19 19 19 20 19 18 18 17 19 20 19 13 8 14 10 8 6 2 0 2 3 4 5 4 4 3 4 4 4
26 25 19 18 13 24 24 22 18 17 14 14 16 16 20 22 21 22 20 19 17 17 20 20 21 18 18 14 17 6 6 6 6 1 4 4 5 5 4 4 4 5 4
26 22 18 15 15 13 24 26 29 26 24 21 22 19 18 22 21 21 22 20 20 17 19 18 18 15 16 20 13 2 1 6 6 6 2 4 5 6 5 5 5 5 5
20 19 22 22 21 18 18 21 27 27 23 20 20 21 20 18 20 19 21 20 21 18 18 21 18 17 17 18 15 4 2 3 4 4 7 6 3 6 6 7 6 6 6
25 28 23 23 19 20 20 18 28 30 27 23 22 20 20 18 18 19 22 22 21 20 20 19 19 18 18 15 13 9 7 9 8 6 5 6 9 5 7 7 7 8 7
Wind_Direction
180 170 162 154 145 144 142 139 137 137 136 135 136 136 133 130 128 121 118 119 115 108 103 102 101 101 100 92 88 86 88 89 86 83 78 74 80 84 83 77 74 76 75
157 164 160 155 146 146 146 142 137 137 137 137 138 135 133 134 132 129 126 121 116 110 109 106 105 106 104 97 92 91 89 87 84 80 76 75 85 85 82 78 80 83 79
154 157 158 154 149 147 146 144 139 139 139 139 140 135 135 134 138 138 132 125 115 114 114 109 108 112 107 97 95 94 93 88 80 74 74 76 90 87 82 77 76 81 78
151 155 155 154 151 149 147 145 144 141 141 141 141 139 136 134 128 129 126 120 117 118 114 111 113 116 111 105 99 98 96 87 78 76 74 69 91 85 82 76 70 70 72
155 155 156 156 153 150 149 147 145 145 146 143 144 141 140 133 129 126 122 119 118 118 115 112 110 113 113 107 101 101 97 87 82 78 76 79 86 86 81 77 72 70 70
156 156 157 156 155 152 152 147 148 149 153 148 149 145 143 137 130 125 123 121 124 122 117 116 112 116 115 103 95 91 92 86 81 76 77 95 90 89 85 79 73 73 69
158 156 155 155 157 154 153 147 147 148 152 151 152 152 145 141 132 128 127 127 126 123 120 121 119 118 112 105 94 87 80 77 76 72 80 95 97 89 82 79 79 74 66
160 160 156 156 156 157 154 150 148 146 147 151 150 150 148 140 131 131 130 130 129 126 124 124 118 120 112 108 101 94 83 78 73 69 77 97 94 90 85 81 78 79 75
160 163 156 155 155 157 157 153 151 147 144 146 148 147 145 137 133 132 132 132 131 129 126 126 118 115 110 109 104 89 81 78 75 68 72 95 98 94 88 81 81 79 78
163 163 157 154 152 153 155 155 156 152 147 144 145 136 134 133 133 134 133 132 131 127 122 118 111 107 107 104 93 88 80 74 75 73 73 99 100 97 92 87 81 80 78
173 166 162 155 149 149 151 153 152 147 144 140 136 135 132 135 132 131 135 133 129 126 119 115 114 105 96 95 96 91 81 77 78 76 74 88 101 96 94 89 86 81 79
175 172 166 157 150 147 151 148 148 139 138 141 140 132 137 138 136 134 138 133 130 125 121 121 117 107 101 99 96 92 90 85 76 72 78 87 99 96 98 98 92 91 85
173 170 165 159 152 150 152 155 151 142 136 137 141 138 144 141 133 137 139 132 123 118 116 113 111 107 107 107 99 99 98 88 80 74 65 84 96 98 99 97 98 94 91
176 175 171 157 154 155 156 161 155 147 148 148 148 146 147 150 143 138 136 133 133 125 124 122 116 113 109 106 105 101 93 81 72 67 68 74 78 95 95 98 97 98 86
180 174 172 156 159 158 156 163 157 157 153 151 151 154 152 154 154 144 138 134 135 129 131 123 122 121 119 112 106 102 94 87 83 77 60 49 58 75 86 85 87 94 86
177 181 164 164 159 158 159 160 160 160 156 156 158 157 155 154 158 151 138 137 135 139 137 134 135 130 124 117 113 105 103 97 90 85 84 102 106 70 64 81 81 90 86
181 175 171 167 160 160 159 157 158 163 159 160 158 153 153 148 157 155 140 142 135 140 133 127 123 122 121 113 117 109 108 103 96 96 90 77 72 69 97 102 96 89 75
178 173 177 161 160 160 156 157 160 162 158 160 157 154 153 153 151 154 144 143 136 137 138 138 138 131 132 132 125 115 113 107 101 97 92 84 80 77 70 72 95 86 78
176 179 172 162 163 157 153 158 160 156 159 160 157 155 157 158 154 153 148 140 142 139 144 144 141 142 142 137 129 124 120 115 106 100 97 87 84 87 80 71 71 78 79
198 173 167 162 162 157 153 155 150 154 158 161 163 165 160 163 158 150 147 146 144 142 143 145 145 137 150 145 124 116 113 112 113 112 117 109 103 98 91 87 79 70 76
1 9 173 166 171 156 155 160 157 163 163 169 173 168 168 168 161 154 153 153 153 153 158 153 145 150 147 135 120 102 74 70 125 144 140 134 132 125 116 106 100 86 75
1 5 351 177 170 171 164 169 168 168 175 175 175 172 172 169 168 162 158 162 160 157 156 160 156 148 152 164 149 126 133 94 90 180 180 183 178 163 168 161 139 124 106
360 2 343 342 351 170 168 164 165 169 158 167 174 174 179 177 174 163 163 165 165 163 167 168 163 164 166 187 169 137 141 181 153 205 215 207 192 187 193 190 189 170 154
353 345 356 337 16 13 177 174 172 177 175 182 179 182 181 181 175 166 168 168 169 170 172 170 173 170 163 180 187 213 183 144 163 165 227 221 215 210 205 203 199 195 181
330 4 350 354 20 9 347 189 181 182 184 179 184 181 183 182 180 165 170 170 174 174 178 173 175 168 173 180 185 162 170 128 125 137 159 190 229 224 223 218 214 211 196
2 7 351 356 6 11 1 333 191 186 181 180 177 179 181 181 184 180 174 178 179 180 180 176 177 177 177 184 191 190 177 170 177 154 137 166 187 209 220 217 215 218 205